Regional Weather Roundup
Issued by NWS

Home | Current Version | Previous Version | Text Only | Print | Product List | Glossary On
Versions: 1 2 3 4 5 6 7 8 9 10 11 12 13 14 15 16 17 18 19 20 21 22 23 24 25 26 27 28 29 30 31 32 33 34 35 36 37 38 39 40 41 42 43 44 45 46 47 48 49 50
673
ASUS43 KDTX 280301
RWRMI
MICHIGAN HOURLY REGIONAL WEATHER ROUNDUP
NATIONAL WEATHER SERVICE DETROIT/PONTIAC MI
1100 PM EDT FRI MAY 27 2016

NOTE: "FAIR" INDICATES FEW OR NO CLOUDS BELOW 12,000 FEET WITH NO
SIGNIFICANT WEATHER AND/OR OBSTRUCTION TO VISIBILITY.

MIZ047>049-052>055-059>063-066>070-074>076-081>083-280400-
SOUTHEAST LOWER MICHIGAN

CITY           SKY/WX    TMP DP  RH WIND       PRES   REMARKS
ADRIAN         PTCLDY    74  63  68 S5        29.98R
ALMA           CLOUDY    74  65  73 SE5       29.93S
ANN ARBOR      PTCLDY    73  63  70 SE3       29.97R
BAD AXE        PTCLDY    69  63  79 SE3       29.98R
CARO           CLOUDY    72  65  77 CALM      29.96R
DETROIT CITY   CLOUDY    76  61  59 S7        29.98R
DETROIT        CLOUDY    74  62  66 SE5       29.98R
FLINT          CLOUDY    77  64  64 SE6       29.96R
GROSSE ILE     CLOUDY    70  63  78 E3        29.96S
HILLSDALE      CLEAR     75  56  51 S5        29.98R
HOWELL         CLOUDY    74  65  73 SE7       29.96S

CITY           SKY/WX    TMP DP  RH WIND       PRES   REMARKS
JACKSON        PTCLDY    74  64  71 SE9       29.97R
LAMBERTVILLE   PTCLDY    70  64  83 CALM      29.98R
LANSING        CLOUDY    77  63  61 SE7       29.95R
LAPEER         FAIR      73  62  68 SE7       29.98R
MASON          CLOUDY    76  63  64 SE7G17    29.96R
MONROE         CLOUDY    71  64  79 E12       29.97R
MT. CLEMENS    CLOUDY    71  64  79 S5        29.97R
PONTIAC        CLOUDY    77  64  64 SE7       29.97R
PORT HOPE        N/A     64  61  90 SE8       29.96R
PORT HURON     MOCLDY    68  64  88 CALM      29.98S
TRI CITIES     CLOUDY    76  66  71 SE5       29.94S
MIDLAND        CLOUDY    69  69  98 CALM      29.93S
TROY           CLOUDY    79  63  57 SE5       30.00R
SAGINAW HB     CLOUDY    75  61  60 SE5       29.94S
$$
MIZ043>046-050>051-056>058-064>065-071>073-077>080-280400-
SOUTHWEST LOWER MICHIGAN

CITY           SKY/WX    TMP DP  RH WIND       PRES   REMARKS
BATTLE CREEK   PTCLDY    75  63  66 S7        29.95R
BENTON HARBOR  CLOUDY    70  67  90 CALM      29.92R
BIG RAPIDS     HVY RAIN  69  69  98 SW8       29.95R
COLDWATER      CLEAR     75  59  56 S7        29.96R
FREMONT        CLOUDY    68  68 100 E5        29.91S
HOLLAND        CLOUDY    69  66  90 SE3       29.92R
GRAND RAPIDS   CLOUDY    75  66  73 N5        29.92S
IONIA          CLOUDY    74  63  68 SE7       29.92R
KALAMAZOO      CLOUDY    76  59  55 SE3       29.94R
LUDINGTON      CLOUDY    70  69  95 SE5       29.89R
MARSHALL       CLEAR     74  63  68 SE3       29.95R
MOUNT PLEASANT LGT RAIN  70  69  96 E3        29.93S
MUSKEGON       LGT RAIN  71  66  84 SE7       29.90R
SOUTH HAVEN    CLOUDY    71  67  87 W5        29.92R
$$
MIZ016>042-280400-
NORTHERN LOWER MICHIGAN

CITY           SKY/WX    TMP DP  RH WIND       PRES   REMARKS
ALPENA         CLOUDY    63  58  83 SE7       29.97S
BEAVER ISLAND  DRIZZLE   61  60  97 SE7       29.91R
BELLAIRE       CLOUDY    66  64  96 CALM      29.92S
CADILLAC       DRIZZLE   69  67  91 SE6       29.94R
CHARLEVOIX     CLOUDY    66  66 100 SE8       29.94S
FRANKFORT      CLOUDY    72  67  83 SE7       29.87F
GAYLORD        CLOUDY    68  63  84 E3        29.96S
GRAYLING       CLOUDY    70  64  80 E3        29.96S
HARBOR SPRINGS CLOUDY    66  65  97 E8        29.92F
HOUGHTON LAKE  CLOUDY    69  64  84 E5        29.95S
MANISTEE       CLOUDY    72  63  73 S8        29.91R
OSCODA         PTCLDY    63  58  85 SE5       29.97R
PELLSTON       CLOUDY    67  65  93 SE3       29.93S
ROGERS CITY    CLOUDY    67  59  77 SE5       29.97S
TRAVERSE CITY  LGT RAIN  67  65  93 CALM      29.89S FOG
$$
MIZ007>008-015-280400-
EASTERN UPPER MICHIGAN

CITY           SKY/WX    TMP DP  RH WIND       PRES   REMARKS
KINROSS          N/A     64  61  88 SE12      29.94S
MACKINAC ISLAN CLOUDY    54  54 100 E14       29.93S
NEWBERRY       CLOUDY    63  60  90 E3        29.91S
S. S. MARIE    CLOUDY    66  57  72 CALM      29.94F
MUNISING         N/A     63  60  90 CALM      29.87S
$$
MIZ004>006-011>014-085-280400-
CENTRAL UPPER MICHIGAN

CITY           SKY/WX    TMP DP  RH WIND       PRES   REMARKS
MANISTIQUE     CLOUDY    61  59  93 SE3       29.89R
ESCANABA         N/A     57  55  94 SE3       29.88S
MENOMINEE      CLOUDY    59  57  94 E5        29.87S
SAWYER-GWINN   DRIZZLE   62  60  91 SE7       29.89R
$$
MIZ001>003-009>011-084-280400-
WESTERN UPPER MICHIGAN

CITY           SKY/WX    TMP DP  RH WIND       PRES   REMARKS
IRON MOUNTAIN  LGT RAIN  64  62  93 SE8       29.85R FOG
HOUGHTON       FOG       53  52  96 E10       29.87R VSB 1/4
COPPER HARBOR    N/A     47  46  97 S3        29.89S
IRONWOOD       CLOUDY    59  57  94 E6        29.77F
$$

ABBREVIATIONS USED IN REMARKS
   TC - TEMPERATURE IN CELSIUS
  WCI - WIND CHILL INDEX
   HX - HEAT INDEX
  VSB - VISIBILITY





USA.gov is the U.S. government's official web portal to all federal, state and local government web resources and services.